Regional Weather Roundup
Issued by NWS

Home | Current Version | Previous Version | Graphics & Text | Print | Product List | Glossary On
Versions: 1 2 3 4 5 6 7 8 9 10 11 12 13 14 15 16 17 18 19 20 21 22 23 24 25 26 27 28 29 30 31 32 33 34 35 36 37 38 39 40 41 42 43 44 45 46 47 48 49 50
000
ASUS43 KOAX 041302
RWRNE

WEATHER ROUNDUP FOR NEBRASKA
NATIONAL WEATHER SERVICE OMAHA NE
800 AM CDT FRI SEP 04 2015

NOTES: SATELLITE DATA IS BEING USED TO AUGMENT CLOUD COVER ABOVE
       12000 FEET.
       "FAIR" INDICATES FEW OR NO CLOUDS BELOW 12,000 FEET WITH NO
       SIGNIFICANT WEATHER AND/OR OBSTRUCTIONS TO VISIBILITY.

  * THESE STATIONS DO NOT REPORT WEATHER SUCH AS RAIN...SNOW OR FOG.

NEZ001>004-019>022-054>056-041400-
NEBRASKA PANHANDLE

CITY           SKY/WX    TMP DP  RH WIND       PRES   REMARKS
SCOTTSBLUFF    CLEAR     55  52  89 CALM      29.90R
ALLIANCE       CLEAR     54  50  86 CALM      29.88R
CHADRON        CLEAR     58  52  80 CALM      29.84R
KIMBALL        CLEAR     52  47  83 W8        29.95R
SIDNEY         CLEAR     53  49  86 W3        29.93R
$$

NEZ057>060-069>072-079>082-041400-
SOUTHWEST NEBRASKA

CITY           SKY/WX    TMP DP  RH WIND       PRES   REMARKS
NORTH PLATTE   PTCLDY    62  60  93 E5        29.83R
IMPERIAL       CLEAR     62  56  80 NW8       29.87R
LEXINGTON      CLEAR     73  61  66 SE15      29.82R
MC COOK        PTCLDY    70  58  65 SW5       29.82R
OGALLALA       CLEAR     57  56  97 W6        29.87R
$$

NEZ005>010-023>029-035>040-094-041400-
NORTH CENTRAL NEBRASKA

CITY           SKY/WX    TMP DP  RH WIND       PRES   REMARKS
VALENTINE      MOCLDY    65  62  90 SW5       29.80S
AINSWORTH      CLOUDY    69  64  83 SE5       29.81F
BROKEN BOW     PTCLDY    69  62  78 SE6       29.83R
O`NEILL        CLOUDY    72  66  81 E6        29.84R
ORD            CLOUDY    73  63  70 SE10      29.82R
THEDFORD       MOCLDY    65  63  93 W3        29.84R
$$

NEZ041-046>049-061>064-073>077-083>087-041400-
SOUTH CENTRAL NEBRASKA

CITY           SKY/WX    TMP DP  RH WIND       PRES   REMARKS
GRAND ISLAND   CLOUDY    74  64  71 SE21G26   29.86R
AURORA         CLOUDY    74  67  78 S15       29.87S
HASTINGS       CLOUDY    74  64  71 SE16      29.86R
HEBRON         CLOUDY    71  67  87 E3        29.92S
HOLDREGE       CLEAR     72  59  64 S12       29.84R
KEARNEY *      PTCLDY    70  61  73 SE9       29.84R
YORK           CLOUDY    73  66  78 S8        29.90R
$$

NEZ011>018-030>034-042>045-041400-
NORTHEAST NEBRASKA

CITY           SKY/WX    TMP DP  RH WIND       PRES   REMARKS
NORFOLK        TSTM      73  66  78 SE13      29.85R
ALBION         LGT RAIN  72  65  79 SE12G17   29.86R
BLAIR          FAIR      72  67  82 SE6       29.93R
COLUMBUS *     CLOUDY    72  63  73 SE9G17    29.88S
FREMONT        CLOUDY    73  68  83 SE5       29.91S
TEKAMAH        LGT RAIN  72  70  93 SE5       29.91R
$$

NEZ050>053-065>068-078-088>093-041400-
SOUTHEAST NEBRASKA

CITY           SKY/WX    TMP DP  RH WIND       PRES   REMARKS
LINCOLN        CLOUDY    75  68  78 SE5       29.92R
OMAHA EPPLEY   CLOUDY    74  68  81 SE12      29.93R
BEATRICE       LGT RAIN  72  68  87 S9        29.93R
FALLS CITY     SUNNY     73  68  84 S6        29.94R
NEBRASKA CITY  PTSUNNY   72  69  90 S6        29.94R
PLATTSMOUTH    CLOUDY    71  67  88 SE7       29.94R
$$

NEZ044-045-051>053-067-041400-
OMAHA AREA

CITY           SKY/WX    TMP DP  RH WIND       PRES   REMARKS
EPPLEY FIELD   CLOUDY    74  68  81 SE12      29.93R
BLAIR          CLOUDY    72  67  82 SE6       29.93R
FREMONT        CLOUDY    73  68  83 SE5       29.91S
MILLARD        CLOUDY    74  69  85 SE3       29.92R
OFFUTT AFB     CLOUDY    72  69  90 E3        29.93R
PLATTSMOUTH    CLOUDY    71  67  88 SE7       29.94R
WAHOO          FAIR      71  69  94 CALM      29.92R
$$


USA.gov is the U.S. government's official web portal to all federal, state and local government web resources and services.